FENGYUN 1C DEB

Satellite information

Favourite Embed

Satellite Type and Status

DEBRISIN ORBIT

Key statistics

Satellite FENGYUN 1C DEB at a glance.

Uptime

9715

Days in orbit

Revolutions

≈ 14.3

Per day

Orbit

SSO

Sun Synchronous Orbit

Inclination

99.0

Latest

Satellite identification and parameters

Extended collection of information and parameters for FENGYUN 1C DEB.

Object identification

Identified? True

Debris? True

Object name: FENGYUN 1C DEB

International designator: 1999-025ASE

Object number (NORAD): 30720

Object ID (CCSDS): 30720

Country: PEOPLES REPUBLIC OF CHINA (PRC)

Current information (Y/N): Y

RCS size: SMALL

Orbital parameters

Period: 100.761 minutes

Inclination: 99.0364 deg

SMA: 7172.816 km

Apoapsis: 817.931 km

Periapsis: 771.43 km

RAAN: 158.6895 deg

Eccentricy: 0.00324146

Argument of periapsis: 333.3756 deg

Mean anomaly: 204.9858 deg

Mean motion: 14.29118529 rev/day

Mean motion (dot): 0.00001437 rev/day2

B* drag term: 0.00058200387 1/REarth

Two-line elements (TLE)

Creation date: Dec. 11, 2025, 10:54 a.m.

Reference frame: TEME

Reference center: EARTH

Epoch: Dec. 11, 2025, 6:05 a.m. UTC

TLE line 0: 0 FENGYUN 1C DEB

TLE line 1: 1 30720U 99025ASE 25345.25392019 .00001437 00000-0 58200-3 0 9990

TLE line 2: 2 30720 99.0364 158.6895 0032415 333.3756 204.9858 14.29118529974673

Live tracking on map

Real-time ground track for satellite FENGYUN 1C DEB.

In-orbit conjunctions

A list of the most updated potential collisions computed for object FENGYUN 1C DEB.

Target Orbit TCA Probability of collision Miss distance Type
FENGYUN 1C DEB SSO 2025-11-17 15:59:36 0.0006395961 101.0 (m) DEBRIS
CZ-6A DEB SSO 2024-10-13 16:09:25 0.0001828583 108.0 (m) DEBRIS
CZ-6A DEB SSO 2024-06-20 09:31:27 0.0002624952 69.0 (m) DEBRIS

Associated space launch

Chinese polar orbiting meteorological satellite

FENGYUN 1C DEB was lifted into orbit during the mission ‘Long March 4B | Feng Yun 1C’, on board a Long March 4B space rocket.

The launch took place on May 10, 1999, 1:33 a.m. from Launch Complex 7.

For more information about the launch, click the button.

Launch to space Long March 4B | Feng Yun 1C
Long March 4B | Feng Yun 1C

Agency: N/A

Status: Launch Successful

Launch date: May 10, 1999, 1:33 a.m. UTC

Rocket: Long March 4B

Launch pad: Launch Complex 7

Location: Taiyuan Satellite Launch Center, People's Republic of China

...

Latest news about this satellite

There are no fresh news available about this satellite. Check back as we update our databases every day.


Newsletter sign-up

Weekly statistics, charts and insights to help you stay on top of the space industry.